Time,TemperatureF,DewpointF,PressureIn,WindDirection,WindDirectionDegrees,WindSpeedMPH,WindSpeedGustMPH,Humidity,HourlyPrecipIn,Conditions,Clouds,dailyrainin,SoftwareType,DateUTC
2013-01-27 00:00:00,30.4,25.9,30.42,SSE,158,0.0,2.2,83,0.00,,,0.13,WUHU216HW,2013-01-27 05:00:00,
2013-01-27 00:03:00,30.4,25.9,30.41,SSE,158,0.8,2.2,83,0.00,,,0.00,WUHU216HW,2013-01-27 05:03:00,
2013-01-27 00:08:00,29.9,25.4,30.41,SSE,158,0.0,0.8,83,0.00,,,0.00,WUHU216HW,2013-01-27 05:08:00,
2013-01-27 00:13:00,29.2,24.3,30.42,SSE,158,0.4,0.8,82,0.00,,,0.00,WUHU216HW,2013-01-27 05:13:00,
2013-01-27 00:18:00,29.0,24.1,30.41,SSE,158,0.8,1.4,82,0.00,,,0.00,WUHU216HW,2013-01-27 05:18:00,
2013-01-27 00:23:00,28.8,23.9,30.43,SSE,158,0.0,1.4,82,0.00,,,0.00,WUHU216HW,2013-01-27 05:23:00,
2013-01-27 00:28:00,28.6,23.8,30.43,SSE,158,0.0,0.8,82,0.00,,,0.00,WUHU216HW,2013-01-27 05:28:00,
2013-01-27 00:33:00,28.4,23.6,30.43,SSE,158,0.0,0.8,82,0.00,,,0.00,WUHU216HW,2013-01-27 05:33:00,
2013-01-27 00:38:00,29.2,24.3,30.43,SSE,158,0.4,0.8,82,0.00,,,0.00,WUHU216HW,2013-01-27 05:38:00,
2013-01-27 00:43:00,28.8,23.9,30.43,SSE,158,1.8,1.8,82,0.00,,,0.00,WUHU216HW,2013-01-27 05:43:00,
2013-01-27 00:48:00,28.3,23.4,30.43,SSE,158,0.4,1.8,82,0.00,,,0.00,WUHU216HW,2013-01-27 05:48:00,
2013-01-27 00:53:00,28.3,23.4,30.43,SSE,158,0.0,0.8,82,0.00,,,0.00,WUHU216HW,2013-01-27 05:53:00,
2013-01-27 00:58:00,28.4,23.3,30.43,SSE,158,0.0,0.0,81,0.00,,,0.00,WUHU216HW,2013-01-27 05:58:00,
2013-01-27 01:03:00,28.4,23.3,30.43,SSE,158,0.0,0.0,81,0.00,,,0.00,WUHU216HW,2013-01-27 06:03:00,
2013-01-27 01:08:00,28.4,23.3,30.43,SSE,158,0.0,0.0,81,0.00,,,0.00,WUHU216HW,2013-01-27 06:08:00,
2013-01-27 01:13:00,29.0,24.1,30.43,SSE,158,0.0,0.0,82,0.00,,,0.00,WUHU216HW,2013-01-27 06:13:00,
2013-01-27 01:18:00,29.3,24.5,30.43,SSE,158,0.0,0.4,82,0.00,,,0.00,WUHU216HW,2013-01-27 06:18:00,
2013-01-27 01:23:00,29.2,24.3,30.44,SSE,158,0.8,0.8,82,0.00,,,0.00,WUHU216HW,2013-01-27 06:23:00,
2013-01-27 01:29:00,29.0,23.9,30.44,SSE,158,0.0,0.8,81,0.00,,,0.00,WUHU216HW,2013-01-27 06:29:00,
2013-01-27 01:34:00,28.8,23.7,30.44,SSE,158,0.0,0.0,81,0.00,,,0.00,WUHU216HW,2013-01-27 06:34:00,
2013-01-27 01:39:00,28.8,23.7,30.44,SSE,158,0.0,0.0,81,0.00,,,0.00,WUHU216HW,2013-01-27 06:39:00,
2013-01-27 01:44:00,28.6,23.5,30.44,SSE,158,0.0,0.0,81,0.00,,,0.00,WUHU216HW,2013-01-27 06:44:00,
2013-01-27 01:49:00,28.6,23.5,30.44,SSE,158,0.0,0.0,81,0.00,,,0.00,WUHU216HW,2013-01-27 06:49:00,
2013-01-27 01:54:00,28.4,23.3,30.45,SSE,158,0.0,0.8,81,0.00,,,0.00,WUHU216HW,2013-01-27 06:54:00,
2013-01-27 01:59:00,28.8,23.7,30.45,SSE,158,0.0,0.8,81,0.00,,,0.00,WUHU216HW,2013-01-27 06:59:00,
2013-01-27 02:04:00,30.4,25.6,30.45,SSE,158,0.0,0.0,82,0.00,,,0.00,WUHU216HW,2013-01-27 07:04:00,
2013-01-27 02:09:00,30.6,25.7,30.45,SSE,158,0.0,0.0,82,0.00,,,0.00,WUHU216HW,2013-01-27 07:09:00,
2013-01-27 02:14:00,29.3,24.5,30.46,SSE,158,0.0,0.0,82,0.00,,,0.00,WUHU216HW,2013-01-27 07:14:00,
2013-01-27 02:19:00,28.8,23.9,30.45,SSE,158,0.0,0.0,82,0.00,,,0.00,WUHU216HW,2013-01-27 07:19:00,
2013-01-27 02:24:00,28.6,23.8,30.46,SSE,158,0.0,0.0,82,0.00,,,0.00,WUHU216HW,2013-01-27 07:24:00,
2013-01-27 02:29:00,28.4,23.6,30.46,SSE,158,0.8,0.8,82,0.00,,,0.00,WUHU216HW,2013-01-27 07:29:00,
2013-01-27 02:34:00,28.4,23.6,30.46,SSE,158,0.0,0.8,82,0.00,,,0.00,WUHU216HW,2013-01-27 07:34:00,
2013-01-27 02:39:00,28.3,23.4,30.46,SSE,158,0.0,1.4,82,0.00,,,0.00,WUHU216HW,2013-01-27 07:39:00,
2013-01-27 02:44:00,28.4,24.0,30.46,SSE,158,0.4,1.4,83,0.00,,,0.00,WUHU216HW,2013-01-27 07:44:00,
2013-01-27 02:49:00,29.3,24.9,30.46,SSE,158,0.0,0.4,83,0.00,,,0.00,WUHU216HW,2013-01-27 07:49:00,
2013-01-27 02:54:00,28.3,23.8,30.46,SSE,158,0.0,0.4,83,0.00,,,0.00,WUHU216HW,2013-01-27 07:54:00,
2013-01-27 02:59:00,27.7,23.2,30.46,SSE,158,0.0,0.0,83,0.00,,,0.00,WUHU216HW,2013-01-27 07:59:00,
2013-01-27 03:04:00,27.4,22.9,30.46,SSE,158,0.0,0.8,83,0.00,,,0.00,WUHU216HW,2013-01-27 08:04:00,
2013-01-27 03:09:00,27.0,22.5,30.46,SSE,158,0.0,0.8,83,0.00,,,0.00,WUHU216HW,2013-01-27 08:09:00,
2013-01-27 03:14:00,27.0,22.5,30.46,SSE,158,0.0,0.0,83,0.00,,,0.00,WUHU216HW,2013-01-27 08:14:00,
2013-01-27 03:19:00,26.8,22.3,30.46,SSE,158,0.0,0.0,83,0.00,,,0.00,WUHU216HW,2013-01-27 08:19:00,
2013-01-27 03:24:00,26.6,22.2,30.46,SSE,158,0.0,0.0,83,0.00,,,0.00,WUHU216HW,2013-01-27 08:24:00,
2013-01-27 03:29:00,26.5,22.0,30.46,SSE,158,0.0,0.0,83,0.00,,,0.00,WUHU216HW,2013-01-27 08:29:00,
2013-01-27 03:34:00,26.1,21.6,30.46,SSE,158,0.0,0.0,83,0.00,,,0.00,WUHU216HW,2013-01-27 08:34:00,
2013-01-27 03:39:00,26.1,21.1,30.46,SSE,158,0.0,0.0,81,0.00,,,0.00,WUHU216HW,2013-01-27 08:39:00,
2013-01-27 03:44:00,26.1,21.1,30.46,SSE,158,0.0,0.0,81,0.00,,,0.00,WUHU216HW,2013-01-27 08:44:00,
2013-01-27 03:49:00,26.5,22.0,30.46,SSE,158,0.0,0.0,83,0.00,,,0.00,WUHU216HW,2013-01-27 08:49:00,
2013-01-27 03:54:00,26.3,21.5,30.46,SSE,158,0.0,0.0,82,0.00,,,0.00,WUHU216HW,2013-01-27 08:54:00,
2013-01-27 03:59:00,26.3,21.5,30.46,SSE,158,0.0,0.0,82,0.00,,,0.00,WUHU216HW,2013-01-27 08:59:00,
2013-01-27 04:04:00,26.1,21.1,30.46,SSE,158,0.0,0.0,81,0.00,,,0.00,WUHU216HW,2013-01-27 09:04:00,
2013-01-27 04:10:00,29.5,25.8,30.46,SSE,158,0.0,0.0,86,0.00,,,0.00,WUHU216HW,2013-01-27 09:10:00,
2013-01-27 04:15:00,33.5,30.2,30.47,SSE,158,0.0,0.0,88,0.00,,,0.00,WUHU216HW,2013-01-27 09:15:00,
2013-01-27 04:20:00,31.3,27.6,30.47,SSE,158,0.0,0.0,86,0.00,,,0.00,WUHU216HW,2013-01-27 09:20:00,
2013-01-27 04:25:00,28.4,24.2,30.47,SSE,158,0.0,0.0,84,0.00,,,0.00,WUHU216HW,2013-01-27 09:25:00,
2013-01-27 04:30:00,27.2,23.0,30.47,SSE,158,0.0,0.0,84,0.00,,,0.00,WUHU216HW,2013-01-27 09:30:00,
2013-01-27 04:35:00,26.3,22.3,30.47,SSE,158,0.0,0.0,85,0.00,,,0.00,WUHU216HW,2013-01-27 09:35:00,
2013-01-27 04:40:00,25.9,22.0,30.47,SSE,158,0.0,0.0,85,0.00,,,0.00,WUHU216HW,2013-01-27 09:40:00,
2013-01-27 04:45:00,25.7,21.9,30.47,SSE,158,0.0,0.0,85,0.00,,,0.00,WUHU216HW,2013-01-27 09:45:00,
2013-01-27 04:50:00,25.6,22.0,30.47,SSE,158,0.0,0.0,86,0.00,,,0.00,WUHU216HW,2013-01-27 09:50:00,
2013-01-27 04:55:00,25.4,21.8,30.47,SSE,158,0.0,0.0,86,0.00,,,0.00,WUHU216HW,2013-01-27 09:55:00,
2013-01-27 05:00:00,25.4,22.1,30.47,SSE,158,0.0,0.0,87,0.00,,,0.00,WUHU216HW,2013-01-27 10:00:00,
2013-01-27 05:05:00,25.7,22.4,30.47,SSE,158,0.0,0.0,87,0.00,,,0.00,WUHU216HW,2013-01-27 10:05:00,
2013-01-27 05:10:00,25.6,22.2,30.47,SSE,158,0.0,0.0,87,0.00,,,0.00,WUHU216HW,2013-01-27 10:10:00,
2013-01-27 05:15:00,25.4,22.1,30.47,SSE,158,0.0,0.0,87,0.00,,,0.00,WUHU216HW,2013-01-27 10:15:00,
2013-01-27 05:20:00,25.2,21.9,30.47,SSE,158,0.0,0.0,87,0.00,,,0.00,WUHU216HW,2013-01-27 10:20:00,
2013-01-27 05:25:00,24.8,21.5,30.47,SSE,158,0.0,0.0,87,0.00,,,0.00,WUHU216HW,2013-01-27 10:25:00,
2013-01-27 05:29:00,24.7,21.3,30.47,SSE,158,0.0,0.0,87,0.00,,,0.00,WUHU216HW,2013-01-27 10:29:00,
2013-01-27 05:43:00,24.1,20.5,30.48,SSE,158,0.0,0.0,86,0.00,,,0.00,WUHU216HW,2013-01-27 10:43:00,
2013-01-27 05:48:00,23.8,20.2,30.48,SSE,158,0.0,0.0,86,0.00,,,0.00,WUHU216HW,2013-01-27 10:48:00,
2013-01-27 05:53:00,23.8,20.2,30.48,SSE,158,0.0,0.0,86,0.00,,,0.00,WUHU216HW,2013-01-27 10:53:00,
2013-01-27 05:58:00,23.8,20.2,30.48,SSE,158,0.0,0.0,86,0.00,,,0.00,WUHU216HW,2013-01-27 10:58:00,
2013-01-27 06:03:00,23.6,19.7,30.48,SSE,158,0.0,0.0,85,0.00,,,0.00,WUHU216HW,2013-01-27 11:03:00,
2013-01-27 06:08:00,23.4,19.5,30.49,SSE,158,0.0,0.0,85,0.00,,,0.00,WUHU216HW,2013-01-27 11:08:00,
2013-01-27 06:13:00,23.4,19.5,30.49,SSE,158,0.0,0.0,85,0.00,,,0.00,WUHU216HW,2013-01-27 11:13:00,
2013-01-27 06:18:00,23.2,19.4,30.49,SSE,158,0.0,0.0,85,0.00,,,0.00,WUHU216HW,2013-01-27 11:18:00,
2013-01-27 06:23:00,23.2,19.4,30.49,SSE,158,0.0,0.0,85,0.00,,,0.00,WUHU216HW,2013-01-27 11:23:00,
2013-01-27 06:28:00,23.0,19.2,30.49,SSE,158,0.0,0.0,85,0.00,,,0.00,WUHU216HW,2013-01-27 11:28:00,
2013-01-27 06:33:00,22.5,18.6,30.49,SSE,158,0.0,0.0,85,0.00,,,0.00,WUHU216HW,2013-01-27 11:33:00,
2013-01-27 06:38:00,22.3,18.5,30.49,SSE,158,0.0,0.0,85,0.00,,,0.00,WUHU216HW,2013-01-27 11:38:00,
2013-01-27 06:43:00,23.6,19.7,30.49,SSE,158,0.0,0.0,85,0.00,,,0.00,WUHU216HW,2013-01-27 11:43:00,
2013-01-27 06:48:00,24.8,21.0,30.50,SSE,158,0.0,0.0,85,0.00,,,0.00,WUHU216HW,2013-01-27 11:48:00,
2013-01-27 06:53:00,25.6,21.7,30.50,SSE,158,0.0,0.0,85,0.00,,,0.00,WUHU216HW,2013-01-27 11:53:00,
2013-01-27 06:58:00,24.3,20.4,30.51,SSE,158,0.0,0.0,85,0.00,,,0.00,WUHU216HW,2013-01-27 11:58:00,
2013-01-27 07:03:00,23.4,19.5,30.51,SSE,158,0.0,0.0,85,0.00,,,0.00,WUHU216HW,2013-01-27 12:03:00,
2013-01-27 07:08:00,22.9,19.0,30.51,SSE,158,0.0,0.0,85,0.00,,,0.00,WUHU216HW,2013-01-27 12:08:00,
2013-01-27 07:13:00,22.7,18.8,30.52,SSE,158,0.0,0.0,85,0.00,,,0.00,WUHU216HW,2013-01-27 12:13:00,
2013-01-27 07:18:00,22.7,18.8,30.52,SSE,158,0.0,0.0,85,0.00,,,0.00,WUHU216HW,2013-01-27 12:18:00,
2013-01-27 07:23:00,22.7,18.8,30.52,SSE,158,0.0,0.0,85,0.00,,,0.00,WUHU216HW,2013-01-27 12:23:00,
2013-01-27 07:28:00,22.7,18.8,30.52,SSE,158,0.0,0.0,85,0.00,,,0.00,WUHU216HW,2013-01-27 12:28:00,
2013-01-27 07:33:00,22.7,18.8,30.53,SSE,158,0.0,0.0,85,0.00,,,0.00,WUHU216HW,2013-01-27 12:33:00,
2013-01-27 07:38:00,22.7,18.5,30.53,SSE,158,0.0,0.0,84,0.00,,,0.00,WUHU216HW,2013-01-27 12:38:00,
2013-01-27 07:43:00,22.7,18.5,30.54,SSE,158,0.0,0.0,84,0.00,,,0.00,WUHU216HW,2013-01-27 12:43:00,
2013-01-27 07:48:00,22.9,18.7,30.54,SSE,158,0.0,0.0,84,0.00,,,0.00,WUHU216HW,2013-01-27 12:48:00,
2013-01-27 07:53:00,23.8,19.9,30.54,SSE,158,0.0,0.0,85,0.00,,,0.00,WUHU216HW,2013-01-27 12:53:00,
2013-01-27 07:59:00,23.9,19.8,30.54,SSE,158,0.0,0.0,84,0.00,,,0.00,WUHU216HW,2013-01-27 12:59:00,
2013-01-27 08:04:00,23.8,19.6,30.55,SSE,158,0.0,0.0,84,0.00,,,0.00,WUHU216HW,2013-01-27 13:04:00,
2013-01-27 08:09:00,23.6,19.4,30.55,SSE,158,0.0,0.0,84,0.00,,,0.00,WUHU216HW,2013-01-27 13:09:00,
2013-01-27 08:14:00,23.4,19.3,30.55,SSE,158,0.0,0.0,84,0.00,,,0.00,WUHU216HW,2013-01-27 13:14:00,
2013-01-27 08:19:00,23.6,19.4,30.55,SSE,158,0.0,0.0,84,0.00,,,0.00,WUHU216HW,2013-01-27 13:19:00,
2013-01-27 08:24:00,23.8,19.6,30.56,SSE,158,0.0,0.0,84,0.00,,,0.00,WUHU216HW,2013-01-27 13:24:00,
2013-01-27 08:29:00,26.1,22.1,30.56,SSE,158,0.0,0.0,85,0.00,,,0.00,WUHU216HW,2013-01-27 13:29:00,
2013-01-27 08:34:00,27.5,23.6,30.56,SSE,158,0.0,0.0,85,0.00,,,0.00,WUHU216HW,2013-01-27 13:34:00,
2013-01-27 08:39:00,27.7,23.8,30.57,SSE,158,0.0,0.0,85,0.00,,,0.00,WUHU216HW,2013-01-27 13:39:00,
2013-01-27 08:44:00,26.3,22.3,30.57,SSE,158,0.0,0.0,85,0.00,,,0.00,WUHU216HW,2013-01-27 13:44:00,
2013-01-27 08:49:00,25.6,21.7,30.57,SSE,158,0.0,0.0,85,0.00,,,0.00,WUHU216HW,2013-01-27 13:49:00,
2013-01-27 08:54:00,25.7,21.9,30.57,SSE,158,0.0,0.0,85,0.00,,,0.00,WUHU216HW,2013-01-27 13:54:00,
2013-01-27 08:59:00,26.3,22.3,30.57,SSE,158,0.0,0.0,85,0.00,,,0.00,WUHU216HW,2013-01-27 13:59:00,
2013-01-27 09:04:00,26.6,22.7,30.57,SSE,158,0.8,1.4,85,0.00,,,0.00,WUHU216HW,2013-01-27 14:04:00,
2013-01-27 09:09:00,27.0,23.0,30.58,SSE,158,0.0,1.4,85,0.00,,,0.00,WUHU216HW,2013-01-27 14:09:00,
2013-01-27 09:14:00,27.4,23.4,30.58,SSE,158,0.0,0.8,85,0.00,,,0.00,WUHU216HW,2013-01-27 14:14:00,
2013-01-27 09:19:00,27.7,23.8,30.58,SSE,158,2.2,2.2,85,0.00,,,0.00,WUHU216HW,2013-01-27 14:19:00,
2013-01-27 09:24:00,28.1,24.1,30.58,SSE,158,2.2,2.6,85,0.00,,,0.00,WUHU216HW,2013-01-27 14:24:00,
2013-01-27 09:29:00,28.3,24.6,30.58,SSE,158,1.4,2.6,86,0.00,,,0.00,WUHU216HW,2013-01-27 14:29:00,
2013-01-27 09:34:00,28.4,24.8,30.58,SSE,158,1.8,3.6,86,0.00,,,0.00,WUHU216HW,2013-01-27 14:34:00,
2013-01-27 09:39:00,28.4,24.8,30.59,SSE,158,0.0,3.6,86,0.00,,,0.00,WUHU216HW,2013-01-27 14:39:00,
2013-01-27 09:44:00,28.6,24.9,30.59,SSE,158,0.8,1.8,86,0.00,,,0.00,WUHU216HW,2013-01-27 14:44:00,
2013-01-27 09:49:00,29.2,25.5,30.59,SSE,158,0.8,1.8,86,0.00,,,0.00,WUHU216HW,2013-01-27 14:49:00,
2013-01-27 09:54:00,30.8,27.4,30.60,SSE,158,0.4,1.8,87,0.00,,,0.00,WUHU216HW,2013-01-27 14:54:00,
2013-01-27 09:59:00,31.7,28.6,30.60,SSE,158,0.8,1.8,88,0.00,,,0.00,WUHU216HW,2013-01-27 14:59:00,
2013-01-27 10:03:00,30.6,26.9,30.60,SSE,158,1.4,1.4,86,0.00,,,0.00,WUHU216HW,2013-01-27 15:03:00,
2013-01-27 10:04:00,30.6,26.9,30.60,SSE,158,1.4,1.4,86,0.00,,,0.00,WUHU216HW,2013-01-27 15:04:00,
2013-01-27 10:09:00,30.6,26.9,30.60,SSE,158,1.4,1.4,86,0.00,,,0.00,WUHU216HW,2013-01-27 15:09:00,
2013-01-27 10:34:00,30.8,27.4,30.61,SSE,158,1.4,1.4,87,0.00,,,0.00,WUHU216HW,2013-01-27 15:34:00,
2013-01-27 10:39:00,31.1,27.7,30.61,SSE,158,2.2,2.2,87,0.00,,,0.00,WUHU216HW,2013-01-27 15:39:00,
2013-01-27 10:44:00,31.1,27.5,30.61,SSE,158,0.0,2.2,86,0.00,,,0.00,WUHU216HW,2013-01-27 15:44:00,
2013-01-27 10:49:00,31.1,26.9,30.61,SSE,158,0.8,1.8,84,0.00,,,0.00,WUHU216HW,2013-01-27 15:49:00,
2013-01-27 10:54:00,31.5,27.3,30.61,SSE,158,3.6,3.6,84,0.00,,,0.00,WUHU216HW,2013-01-27 15:54:00,
2013-01-27 10:59:00,31.0,25.2,30.61,SSE,158,0.0,3.6,79,0.00,,,0.00,WUHU216HW,2013-01-27 15:59:00,
2013-01-27 11:04:00,31.1,25.4,30.61,SSE,158,0.4,0.8,79,0.00,,,0.00,WUHU216HW,2013-01-27 16:04:00,
2013-01-27 11:09:00,31.7,25.7,30.61,North,0,1.8,2.2,78,0.00,,,0.00,WUHU216HW,2013-01-27 16:09:00,
2013-01-27 11:14:00,32.2,26.2,30.61,NNW,338,1.4,2.2,78,0.00,,,0.00,WUHU216HW,2013-01-27 16:14:00,
2013-01-27 11:19:00,32.4,25.0,30.61,NNW,338,2.2,2.6,74,0.01,,,0.01,WUHU216HW,2013-01-27 16:19:00,
2013-01-27 11:24:00,32.4,24.7,30.61,NNW,338,2.2,2.6,73,0.01,,,0.01,WUHU216HW,2013-01-27 16:24:00,
2013-01-27 11:29:00,32.9,25.2,30.60,North,0,2.6,2.6,73,0.01,,,0.01,WUHU216HW,2013-01-27 16:29:00,
2013-01-27 11:34:00,33.8,26.0,30.60,North,0,1.4,3.6,73,0.01,,,0.01,WUHU216HW,2013-01-27 16:34:00,
2013-01-27 11:39:00,34.4,25.9,30.59,NW,315,1.8,3.6,71,0.01,,,0.01,WUHU216HW,2013-01-27 16:39:00,
2013-01-27 11:44:00,34.9,26.7,30.59,North,0,0.4,3.6,72,0.01,,,0.01,WUHU216HW,2013-01-27 16:44:00,
2013-01-27 11:49:00,35.6,25.7,30.59,SSW,203,1.8,4.4,67,0.01,,,0.01,WUHU216HW,2013-01-27 16:49:00,
2013-01-27 11:54:00,36.0,25.4,30.59,SE,135,1.8,4.4,65,0.01,,,0.01,WUHU216HW,2013-01-27 16:54:00,
2013-01-27 11:59:00,36.4,25.4,30.59,ESE,113,0.8,3.6,64,0.01,,,0.01,WUHU216HW,2013-01-27 16:59:00,
2013-01-27 12:04:00,36.9,25.8,30.59,SW,225,1.4,3.6,64,0.01,,,0.01,WUHU216HW,2013-01-27 17:04:00,
2013-01-27 12:09:00,37.1,25.3,30.59,West,270,0.8,2.2,62,0.01,,,0.01,WUHU216HW,2013-01-27 17:09:00,
2013-01-27 12:14:00,37.8,28.5,30.59,ESE,113,5.8,5.8,69,0.01,,,0.01,WUHU216HW,2013-01-27 17:14:00,
2013-01-27 12:19:00,37.4,25.2,30.59,NNE,23,3.6,5.8,61,0.00,,,0.01,WUHU216HW,2013-01-27 17:19:00,
2013-01-27 12:24:00,37.3,23.4,30.58,North,0,2.6,4.0,57,0.00,,,0.01,WUHU216HW,2013-01-27 17:24:00,
2013-01-27 12:29:00,36.2,22.9,30.58,WNW,293,0.4,3.2,58,0.01,,,0.02,WUHU216HW,2013-01-27 17:29:00,
2013-01-27 12:34:00,37.1,29.5,30.58,East,90,2.2,2.2,74,0.01,,,0.02,WUHU216HW,2013-01-27 17:34:00,
2013-01-27 12:39:00,37.1,23.7,30.57,NW,315,2.6,3.6,58,0.01,,,0.02,WUHU216HW,2013-01-27 17:39:00,
2013-01-27 12:44:00,36.9,24.0,30.57,ENE,68,2.2,3.6,59,0.01,,,0.02,WUHU216HW,2013-01-27 17:44:00,
2013-01-27 12:49:00,37.3,24.2,30.56,ENE,68,1.8,3.6,59,0.01,,,0.02,WUHU216HW,2013-01-27 17:49:00,
2013-01-27 12:54:00,37.3,23.9,30.56,SSE,158,2.6,2.6,58,0.01,,,0.02,WUHU216HW,2013-01-27 17:54:00,
2013-01-27 12:59:00,38.2,24.7,30.56,NW,315,1.8,3.6,58,0.01,,,0.02,WUHU216HW,2013-01-27 17:59:00,
2013-01-27 13:04:00,38.3,24.0,30.55,ENE,68,1.8,3.6,56,0.02,,,0.03,WUHU216HW,2013-01-27 18:04:00,
2013-01-27 13:09:00,38.5,22.8,30.55,West,270,0.8,3.6,53,0.02,,,0.03,WUHU216HW,2013-01-27 18:09:00,
2013-01-27 13:14:00,38.0,22.8,30.54,North,0,1.8,6.2,54,0.02,,,0.03,WUHU216HW,2013-01-27 18:14:00,
2013-01-27 13:19:00,38.0,22.3,30.54,NNE,23,2.2,6.2,53,0.02,,,0.03,WUHU216HW,2013-01-27 18:19:00,
2013-01-27 13:24:00,38.5,23.7,30.54,NNE,23,1.4,4.0,55,0.02,,,0.03,WUHU216HW,2013-01-27 18:24:00,
2013-01-27 13:29:00,39.4,24.0,30.54,WSW,248,0.8,3.2,54,0.01,,,0.03,WUHU216HW,2013-01-27 18:29:00,
2013-01-27 13:34:00,39.2,23.1,30.54,NE,45,3.2,5.4,52,0.01,,,0.03,WUHU216HW,2013-01-27 18:34:00,
2013-01-27 13:39:00,39.1,22.9,30.54,East,90,0.8,5.4,52,0.01,,,0.03,WUHU216HW,2013-01-27 18:39:00,
2013-01-27 13:44:00,39.2,23.1,30.54,NW,315,0.8,5.0,52,0.01,,,0.03,WUHU216HW,2013-01-27 18:44:00,
2013-01-27 13:49:00,39.6,22.5,30.54,NW,315,2.2,5.0,50,0.01,,,0.03,WUHU216HW,2013-01-27 18:49:00,
2013-01-27 13:54:00,39.2,22.6,30.54,WSW,248,2.2,4.0,51,0.01,,,0.03,WUHU216HW,2013-01-27 18:54:00,
2013-01-27 13:59:00,39.2,23.9,30.55,NE,45,3.6,4.0,54,0.01,,,0.03,WUHU216HW,2013-01-27 18:59:00,
2013-01-27 14:04:00,39.4,22.8,30.55,North,0,0.8,5.0,51,0.00,,,0.03,WUHU216HW,2013-01-27 19:04:00,
2013-01-27 14:09:00,39.8,22.6,30.54,NW,315,3.6,5.0,50,0.00,,,0.03,WUHU216HW,2013-01-27 19:09:00,
2013-01-27 14:14:00,40.0,22.8,30.54,NE,45,1.4,4.0,50,0.00,,,0.03,WUHU216HW,2013-01-27 19:14:00,
2013-01-27 14:20:00,40.0,22.2,30.54,NNW,338,2.2,3.6,49,0.00,,,0.03,WUHU216HW,2013-01-27 19:20:00,
2013-01-27 14:25:00,39.2,22.6,30.54,NNE,23,3.2,3.6,51,0.00,,,0.03,WUHU216HW,2013-01-27 19:25:00,
2013-01-27 14:30:00,39.8,23.5,30.54,North,0,1.4,3.6,52,0.00,,,0.03,WUHU216HW,2013-01-27 19:30:00,
2013-01-27 14:35:00,40.5,23.8,30.54,NNE,23,2.2,3.6,51,0.00,,,0.03,WUHU216HW,2013-01-27 19:35:00,
2013-01-27 14:40:00,40.7,25.7,30.54,WSW,248,0.8,6.2,55,0.00,,,0.03,WUHU216HW,2013-01-27 19:40:00,
2013-01-27 14:45:00,40.7,25.7,30.54,North,0,2.6,6.2,55,0.00,,,0.03,WUHU216HW,2013-01-27 19:45:00,
2013-01-27 14:50:00,41.0,24.7,30.54,North,0,0.8,2.6,52,0.00,,,0.03,WUHU216HW,2013-01-27 19:50:00,
2013-01-27 14:55:00,41.4,24.1,30.53,NNW,338,2.2,3.6,50,0.00,,,0.03,WUHU216HW,2013-01-27 19:55:00,
2013-01-27 15:00:00,41.4,24.6,30.53,NE,45,2.2,4.4,51,0.00,,,0.03,WUHU216HW,2013-01-27 20:00:00,
2013-01-27 15:05:00,41.4,23.6,30.52,NE,45,1.4,4.4,49,0.00,,,0.03,WUHU216HW,2013-01-27 20:05:00,
2013-01-27 15:10:00,41.4,24.1,30.52,East,90,0.8,3.6,50,0.00,,,0.03,WUHU216HW,2013-01-27 20:10:00,
2013-01-27 15:15:00,41.4,25.0,30.53,NNE,23,3.2,3.6,52,0.00,,,0.03,WUHU216HW,2013-01-27 20:15:00,
2013-01-27 15:20:00,41.8,23.9,30.53,North,0,1.8,3.2,49,0.00,,,0.03,WUHU216HW,2013-01-27 20:20:00,
2013-01-27 15:25:00,41.6,24.3,30.54,ENE,68,1.4,3.6,50,0.00,,,0.03,WUHU216HW,2013-01-27 20:25:00,
2013-01-27 15:30:00,41.0,23.2,30.54,East,90,0.4,3.6,49,0.00,,,0.03,WUHU216HW,2013-01-27 20:30:00,
2013-01-27 15:35:00,40.9,23.6,30.53,ENE,68,1.4,3.2,50,0.00,,,0.03,WUHU216HW,2013-01-27 20:35:00,
2013-01-27 15:40:00,40.7,23.4,30.53,NNE,23,0.0,2.2,50,0.00,,,0.03,WUHU216HW,2013-01-27 20:40:00,
2013-01-27 15:45:00,40.5,24.1,30.53,ENE,68,0.8,5.0,52,0.00,,,0.03,WUHU216HW,2013-01-27 20:45:00,
2013-01-27 15:50:00,40.1,25.1,30.53,East,90,1.4,2.2,55,0.00,,,0.03,WUHU216HW,2013-01-27 20:50:00,
2013-01-27 15:55:00,40.3,25.7,30.53,SE,135,0.8,2.2,56,0.00,,,0.03,WUHU216HW,2013-01-27 20:55:00,
2013-01-27 16:00:00,40.5,25.0,30.53,NE,45,0.8,0.8,54,0.00,,,0.03,WUHU216HW,2013-01-27 21:00:00,
2013-01-27 16:05:00,40.9,26.3,30.53,NNE,23,1.8,2.2,56,0.00,,,0.03,WUHU216HW,2013-01-27 21:05:00,
2013-01-27 16:10:00,40.5,25.5,30.53,NE,45,0.8,2.2,55,0.00,,,0.03,WUHU216HW,2013-01-27 21:10:00,
2013-01-27 16:15:00,40.3,24.8,30.52,ENE,68,1.4,1.8,54,0.00,,,0.03,WUHU216HW,2013-01-27 21:15:00,
2013-01-27 16:20:00,40.5,25.5,30.52,ESE,113,0.4,2.2,55,0.00,,,0.03,WUHU216HW,2013-01-27 21:20:00,
2013-01-27 16:25:00,40.7,24.8,30.52,NNE,23,0.0,2.2,53,0.00,,,0.03,WUHU216HW,2013-01-27 21:25:00,
2013-01-27 16:30:00,40.3,24.0,30.53,East,90,0.0,0.8,52,0.00,,,0.03,WUHU216HW,2013-01-27 21:30:00,
2013-01-27 16:35:00,40.1,24.3,30.52,East,90,0.4,0.4,53,0.00,,,0.03,WUHU216HW,2013-01-27 21:35:00,
2013-01-27 16:40:00,40.1,24.8,30.53,ENE,68,0.0,0.4,54,0.00,,,0.03,WUHU216HW,2013-01-27 21:40:00,
2013-01-27 16:45:00,40.0,24.6,30.53,ENE,68,0.0,0.0,54,0.00,,,0.03,WUHU216HW,2013-01-27 21:45:00,
2013-01-27 16:50:00,39.4,23.6,30.53,East,90,0.0,0.0,53,0.00,,,0.03,WUHU216HW,2013-01-27 21:50:00,
2013-01-27 16:55:00,38.9,23.6,30.53,East,90,0.0,0.0,54,0.00,,,0.03,WUHU216HW,2013-01-27 21:55:00,
2013-01-27 17:00:00,38.9,23.9,30.54,East,90,0.0,0.0,55,0.00,,,0.03,WUHU216HW,2013-01-27 22:00:00,
2013-01-27 17:05:00,39.2,24.3,30.54,East,90,0.0,0.0,55,0.00,,,0.03,WUHU216HW,2013-01-27 22:05:00,
2013-01-27 17:10:00,39.1,24.1,30.54,East,90,0.0,0.0,55,0.00,,,0.03,WUHU216HW,2013-01-27 22:10:00,
2013-01-27 17:15:00,38.5,23.2,30.54,East,90,0.0,0.0,54,0.00,,,0.03,WUHU216HW,2013-01-27 22:15:00,
2013-01-27 17:20:00,38.2,22.9,30.54,East,90,0.0,0.4,54,0.00,,,0.03,WUHU216HW,2013-01-27 22:20:00,
2013-01-27 17:25:00,38.3,23.5,30.54,ESE,113,0.0,0.8,55,0.00,,,0.03,WUHU216HW,2013-01-27 22:25:00,
2013-01-27 17:30:00,38.3,23.5,30.54,ESE,113,0.0,0.8,55,0.00,,,0.03,WUHU216HW,2013-01-27 22:30:00,
2013-01-27 17:35:00,37.8,23.4,30.54,ESE,113,0.0,0.0,56,0.01,,,0.04,WUHU216HW,2013-01-27 22:35:00,
2013-01-27 17:40:00,37.4,23.6,30.54,ESE,113,0.0,0.4,57,0.01,,,0.04,WUHU216HW,2013-01-27 22:40:00,
2013-01-27 17:45:00,37.1,23.2,30.55,ESE,113,0.0,0.8,57,0.01,,,0.04,WUHU216HW,2013-01-27 22:45:00,
2013-01-27 17:50:00,36.7,22.9,30.55,East,90,0.8,0.8,57,0.01,,,0.04,WUHU216HW,2013-01-27 22:50:00,
2013-01-27 17:55:00,37.1,24.5,30.55,ENE,68,0.0,1.8,60,0.01,,,0.04,WUHU216HW,2013-01-27 22:55:00,
2013-01-27 18:00:00,36.7,24.2,30.54,East,90,1.8,3.6,60,0.01,,,0.04,WUHU216HW,2013-01-27 23:00:00,
2013-01-27 18:05:00,36.2,24.0,30.54,ESE,113,1.8,3.6,61,0.01,,,0.04,WUHU216HW,2013-01-27 23:05:00,
2013-01-27 18:10:00,36.2,24.0,30.54,SE,135,1.8,2.2,61,0.01,,,0.04,WUHU216HW,2013-01-27 23:10:00,
2013-01-27 18:15:00,36.0,24.0,30.54,East,90,0.8,1.8,61,0.01,,,0.04,WUHU216HW,2013-01-27 23:15:00,
2013-01-27 18:20:00,36.2,24.5,30.54,East,90,0.8,2.2,62,0.01,,,0.04,WUHU216HW,2013-01-27 23:20:00,
2013-01-27 18:25:00,35.8,24.1,30.54,NNE,23,0.8,2.2,62,0.01,,,0.04,WUHU216HW,2013-01-27 23:25:00,
2013-01-27 18:30:00,35.6,23.9,30.54,East,90,1.4,1.4,62,0.01,,,0.04,WUHU216HW,2013-01-27 23:30:00,
2013-01-27 18:35:00,35.3,23.9,30.54,SSE,158,0.0,1.8,63,0.00,,,0.04,WUHU216HW,2013-01-27 23:35:00,
2013-01-27 18:40:00,34.9,23.6,30.54,East,90,1.8,1.8,63,0.00,,,0.04,WUHU216HW,2013-01-27 23:40:00,
2013-01-27 18:45:00,35.1,24.5,30.54,SE,135,0.0,1.8,65,0.00,,,0.04,WUHU216HW,2013-01-27 23:45:00,
2013-01-27 18:50:00,34.6,23.9,30.55,SW,225,0.0,1.8,65,0.00,,,0.04,WUHU216HW,2013-01-27 23:50:00,
2013-01-27 18:55:00,34.4,23.8,30.55,East,90,3.2,3.2,65,0.00,,,0.04,WUHU216HW,2013-01-27 23:55:00,
2013-01-27 19:00:00,34.6,23.9,30.55,ESE,113,1.8,3.2,65,0.00,,,0.04,WUHU216HW,2013-01-28 00:00:00,
2013-01-27 19:05:00,34.6,23.9,30.55,SSE,158,0.4,1.8,65,0.00,,,0.04,WUHU216HW,2013-01-28 00:05:00,
2013-01-27 19:10:00,34.7,23.8,30.55,East,90,0.0,1.4,64,0.00,,,0.04,WUHU216HW,2013-01-28 00:10:00,
2013-01-27 19:15:00,34.9,24.3,30.55,East,90,0.8,0.8,65,0.00,,,0.04,WUHU216HW,2013-01-28 00:15:00,
2013-01-27 19:21:00,34.7,24.1,30.55,ENE,68,0.0,0.8,65,0.00,,,0.04,WUHU216HW,2013-01-28 00:21:00,
2013-01-27 19:26:00,34.6,24.3,30.55,ESE,113,0.8,1.4,66,0.00,,,0.04,WUHU216HW,2013-01-28 00:26:00,
2013-01-27 19:31:00,34.4,24.1,30.55,SE,135,0.0,1.4,66,0.00,,,0.04,WUHU216HW,2013-01-28 00:31:00,
2013-01-27 19:36:00,34.4,24.1,30.55,SSE,158,0.0,0.0,66,0.00,,,0.04,WUHU216HW,2013-01-28 00:36:00,
2013-01-27 19:41:00,34.4,23.8,30.55,East,90,2.2,2.2,65,0.00,,,0.04,WUHU216HW,2013-01-28 00:41:00,
2013-01-27 19:46:00,34.4,24.1,30.55,ESE,113,0.0,2.2,66,0.00,,,0.04,WUHU216HW,2013-01-28 00:46:00,
2013-01-27 19:51:00,34.2,23.6,30.54,ESE,113,0.0,1.8,65,0.00,,,0.04,WUHU216HW,2013-01-28 00:51:00,
2013-01-27 19:56:00,34.2,23.6,30.54,ENE,68,0.4,1.4,65,0.00,,,0.04,WUHU216HW,2013-01-28 00:56:00,
2013-01-27 20:01:00,34.0,23.4,30.54,East,90,0.0,1.4,65,0.00,,,0.04,WUHU216HW,2013-01-28 01:01:00,
2013-01-27 20:06:00,33.8,23.6,30.54,East,90,0.0,0.8,66,0.00,,,0.04,WUHU216HW,2013-01-28 01:06:00,
2013-01-27 20:11:00,33.8,23.2,30.54,ESE,113,0.0,0.0,65,0.00,,,0.04,WUHU216HW,2013-01-28 01:11:00,
2013-01-27 20:16:00,33.8,23.6,30.54,SE,135,0.0,0.8,66,0.00,,,0.04,WUHU216HW,2013-01-28 01:16:00,
2013-01-27 20:21:00,33.8,23.6,30.54,East,90,0.0,0.8,66,0.00,,,0.04,WUHU216HW,2013-01-28 01:21:00,
2013-01-27 20:26:00,33.8,23.6,30.54,ESE,113,0.0,0.8,66,0.00,,,0.04,WUHU216HW,2013-01-28 01:26:00,
2013-01-27 20:31:00,33.7,23.4,30.54,SE,135,0.0,0.8,66,0.00,,,0.04,WUHU216HW,2013-01-28 01:31:00,
2013-01-27 20:36:00,33.7,23.8,30.54,East,90,0.0,0.0,67,0.00,,,0.04,WUHU216HW,2013-01-28 01:36:00,
2013-01-27 20:41:00,33.7,23.8,30.54,ESE,113,0.0,0.0,67,0.00,,,0.04,WUHU216HW,2013-01-28 01:41:00,
2013-01-27 20:46:00,33.5,23.2,30.54,ESE,113,0.0,0.0,66,0.00,,,0.04,WUHU216HW,2013-01-28 01:46:00,
2013-01-27 20:51:00,33.5,23.2,30.54,ESE,113,0.0,0.0,66,0.00,,,0.04,WUHU216HW,2013-01-28 01:51:00,
2013-01-27 20:56:00,33.5,23.2,30.55,SE,135,0.0,0.0,66,0.00,,,0.04,WUHU216HW,2013-01-28 01:56:00,
2013-01-27 21:01:00,33.3,23.5,30.54,SE,135,0.0,0.0,67,0.00,,,0.04,WUHU216HW,2013-01-28 02:01:00,
2013-01-27 21:06:00,33.1,23.3,30.54,SE,135,0.0,0.0,67,0.00,,,0.04,WUHU216HW,2013-01-28 02:06:00,
2013-01-27 21:11:00,33.1,23.3,30.54,SE,135,0.4,0.4,67,0.00,,,0.04,WUHU216HW,2013-01-28 02:11:00,
2013-01-27 21:16:00,33.1,23.3,30.54,SE,135,0.0,0.4,67,0.00,,,0.04,WUHU216HW,2013-01-28 02:16:00,
2013-01-27 21:21:00,33.1,23.3,30.55,SE,135,0.0,0.0,67,0.00,,,0.04,WUHU216HW,2013-01-28 02:21:00,
2013-01-27 21:26:00,32.8,23.0,30.55,SSE,158,0.0,0.0,67,0.00,,,0.04,WUHU216HW,2013-01-28 02:26:00,
2013-01-27 21:31:00,32.6,22.8,30.54,SSE,158,0.0,0.0,67,0.00,,,0.04,WUHU216HW,2013-01-28 02:31:00,
2013-01-27 21:36:00,32.4,22.7,30.55,SSE,158,0.0,0.0,67,0.00,,,0.04,WUHU216HW,2013-01-28 02:36:00,
2013-01-27 21:41:00,32.2,22.5,30.55,SSE,158,0.0,0.0,67,0.00,,,0.04,WUHU216HW,2013-01-28 02:41:00,
2013-01-27 21:46:00,32.2,22.5,30.54,SSE,158,0.0,0.0,67,0.00,,,0.04,WUHU216HW,2013-01-28 02:46:00,
2013-01-27 21:51:00,32.2,22.5,30.55,SSE,158,0.0,0.0,67,0.00,,,0.04,WUHU216HW,2013-01-28 02:51:00,
2013-01-27 21:56:00,32.2,22.5,30.55,SSW,203,0.0,0.4,67,0.00,,,0.04,WUHU216HW,2013-01-28 02:56:00,
2013-01-27 22:01:00,32.4,23.4,30.54,ESE,113,0.0,0.4,69,0.00,,,0.04,WUHU216HW,2013-01-28 03:01:00,
2013-01-27 22:06:00,32.6,23.5,30.54,SSE,158,0.0,0.0,69,0.00,,,0.04,WUHU216HW,2013-01-28 03:06:00,
2013-01-27 22:11:00,32.6,23.5,30.54,SSE,158,0.0,0.0,69,0.00,,,0.04,WUHU216HW,2013-01-28 03:11:00,
2013-01-27 22:16:00,32.8,24.0,30.53,East,90,0.4,0.4,70,0.00,,,0.04,WUHU216HW,2013-01-28 03:16:00,
2013-01-27 22:21:00,32.8,24.0,30.54,SE,135,0.0,0.4,70,0.00,,,0.04,WUHU216HW,2013-01-28 03:21:00,
2013-01-27 22:26:00,32.8,24.0,30.53,SSE,158,0.0,0.8,70,0.00,,,0.04,WUHU216HW,2013-01-28 03:26:00,
2013-01-27 22:31:00,32.9,24.2,30.53,SSE,158,0.0,0.8,70,0.00,,,0.04,WUHU216HW,2013-01-28 03:31:00,
2013-01-27 22:36:00,32.9,23.9,30.52,ESE,113,0.0,0.4,69,0.00,,,0.04,WUHU216HW,2013-01-28 03:36:00,
2013-01-27 22:41:00,33.1,24.0,30.52,SSE,158,0.0,0.4,69,0.00,,,0.04,WUHU216HW,2013-01-28 03:41:00,
2013-01-27 22:46:00,33.3,24.6,30.52,East,90,0.4,0.4,70,0.00,,,0.04,WUHU216HW,2013-01-28 03:46:00,
2013-01-27 22:51:00,33.3,24.2,30.51,East,90,0.0,0.4,69,0.00,,,0.04,WUHU216HW,2013-01-28 03:51:00,
2013-01-27 22:56:00,33.3,24.2,30.51,East,90,0.0,0.0,69,0.00,,,0.04,WUHU216HW,2013-01-28 03:56:00,
2013-01-27 23:01:00,33.3,24.2,30.51,East,90,0.0,0.8,69,0.00,,,0.04,WUHU216HW,2013-01-28 04:01:00,
2013-01-27 23:06:00,33.5,24.3,30.52,ESE,113,0.0,0.8,69,0.00,,,0.04,WUHU216HW,2013-01-28 04:06:00,
2013-01-27 23:11:00,33.5,24.3,30.51,SE,135,0.0,0.8,69,0.00,,,0.04,WUHU216HW,2013-01-28 04:11:00,
2013-01-27 23:16:00,33.5,24.3,30.52,ESE,113,0.0,0.8,69,0.00,,,0.04,WUHU216HW,2013-01-28 04:16:00,
2013-01-27 23:21:00,33.5,24.3,30.51,East,90,0.0,0.4,69,0.00,,,0.04,WUHU216HW,2013-01-28 04:21:00,
2013-01-27 23:26:00,33.3,24.2,30.51,ESE,113,0.4,1.4,69,0.00,,,0.04,WUHU216HW,2013-01-28 04:26:00,
2013-01-27 23:31:00,33.3,24.6,30.51,SE,135,0.4,1.4,70,0.00,,,0.04,WUHU216HW,2013-01-28 04:31:00,
2013-01-27 23:36:00,33.3,24.2,30.51,ESE,113,0.0,0.8,69,0.00,,,0.04,WUHU216HW,2013-01-28 04:36:00,
2013-01-27 23:41:00,33.3,24.2,30.52,ESE,113,0.0,0.8,69,0.00,,,0.04,WUHU216HW,2013-01-28 04:41:00,
2013-01-27 23:46:00,33.3,24.2,30.51,SE,135,0.0,0.4,69,0.00,,,0.04,WUHU216HW,2013-01-28 04:46:00,
2013-01-27 23:51:00,33.1,24.0,30.51,ENE,68,0.0,0.4,69,0.00,,,0.04,WUHU216HW,2013-01-28 04:51:00,
2013-01-27 23:56:00,33.1,24.0,30.51,ENE,68,0.0,0.0,69,0.00,,,0.04,WUHU216HW,2013-01-28 04:56:00,